Regional Weather Roundup
Issued by NWS Wakefield, VA

Home | Current Version | Previous Version | Graphics & Text | Print | Product List | Glossary On
Versions: 1 2 3 4 5 6 7 8 9 10 11 12 13 14 15 16 17 18 19 20 21 22 23 24 25 26 27 28 29 30 31 32 33 34 35 36 37 38 39 40 41 42 43 44 45 46 47 48 49 50
000
ASUS41 KAKQ 252115
RWRAKQ

REGIONAL WEATHER ROUNDUP
NATIONAL WEATHER SERVICE WAKEFIELD VA
500 PM EDT SUN JUN 25 2017

Note: "fair" indicates few or no clouds below 12,000 feet with no
significant weather and/or obstructions to visibility. * = Denotes
station may not report precipitation (e.g., rain,snow,etc.),
thunder or fog.

VAZ042-051-052>054-056-252200-
NORTHERN VIRGINIA

CITY           SKY/WX    TMP DP  RH WIND       PRES   REMARKS
WASH NATIONAL  PTSUNNY   87  51  28 NW10      29.97F
DULLES         PTSUNNY   84  48  28 NW15G21   29.99F
FORT BELVOIR   SUNNY     86  52  30 W10       29.97S
QUANTICO       SUNNY     88  53  30 NW13      29.98S
FREDERICKSBRG* MOSUNNY   84  58  40 NW8       29.97S
STAFFORD*      MOSUNNY   85  53  33 W5        30.02S
WARRENTON      MOSUNNY   87  44  22 NW8       29.99S
CULPEPER*      MOSUNNY   83  54  36 W6        30.00S
MANASSAS*      MOSUNNY   82  53  36 W6        29.99S
LEESBURG*      MOSUNNY  N/A N/A N/A NW15      30.01S
WINCHESTER     MOSUNNY   79  45  29 NW13G18   30.02S
FRONT ROYAL*   PTCLDY    81  45  28 W9        30.02S
LURAY*         CLEAR     81  43  26 NW15G22   30.03S
$$

VAZ048-049-060>072-079>083-252200-
CENTRAL AND SOUTH CENTRAL VIRGINIA

CITY           SKY/WX    TMP DP  RH WIND       PRES   REMARKS
RICHMOND       MOSUNNY   83  58  42 SW6       29.99F
CHESTERFIELD*  FAIR      85  59  41 NW8       30.00
PETERSBURG*    SUNNY     84  56  38 CALM      30.01S
HANOVER        MOSUNNY   82  58  43 W9        30.00F
TAPPAHANNOCK*  MOSUNNY   83  49  30 W5        29.99F
QUINTON*       FAIR      84  62  46 W5        29.98S
CHARLOTTSVILLE MOSUNNY   85  50  29 SW9       30.00F
GORDONSVILLE*  PTCLDY    83  53  35 SW3       30.00S
ORANGE*        MOSUNNY   81  55  41 W3        30.00S
LOUISA*        MOSUNNY   84  63  48 W5        29.99S
BUMPASS*       FAIR      82  62  50 SW6       29.99F
FARMVILLE*     CLOUDY    80  51  36 W3        30.02S
CREWE*         FAIR      81  51  35 CALM      30.02S
FORT PICKETT*  FAIR      83  48  29 W12       30.02S
CHASE CITY*    FAIR      79  59  49 NW7       30.04S
CLARKSVILLE*   FAIR      79  61  53 W5        30.04R
SOUTH HILL*    SUNNY     83  61  47 W6        30.09S
LAWRENCEVILLE* FAIR      83  59  43 W7        30.02S
EMPORIA*       MOSUNNY   84  61  45 W5        30.02S
$$

VAZ088>098-252200-
SOUTHEAST VIRGINIA

CITY           SKY/WX    TMP DP  RH WIND       PRES   REMARKS
NORFOLK        MOSUNNY   84  61  45 NE6       29.99S
VIRGINIA BEACH MOSUNNY   85  64  49 CALM      29.98F
NORFOLK NAVAL  MOSUNNY   85  62  46 E6        30.00F
WEST POINT*    MOSUNNY   84  59  43 CALM      29.99F
SALUDA*        FAIR      84  64  50 NW5       29.98S
NEWPORT NEWS   SUNNY     85  62  46 W7        29.99S
LANGLEY AFB    SUNNY     83  66  56 E9        29.99S
FORT EUSTIS    SUNNY     88  64  44 NW8       29.97S
WILLIAMSBURG*  MOSUNNY   88  63  42 NW8       30.00S
HR EXEC AP*    FAIR      84  66  54 NW6       29.96S
FRANKLIN*      MOSUNNY   84  63  48 NW5       30.00S
US460-WAKEFLD  MOSUNNY   86  62  44 NW6       30.00R
$$

VAZ020-022-025-037-045-252200-
WEST CENTRAL AND SOUTHWEST VIRGINIA

CITY           SKY/WX    TMP DP  RH WIND       PRES   REMARKS
STAUNTON*      MOSUNNY   79  46  30 NW8       30.06S
WAYNESBORO*    MOCLDY    78  46  32 W7        30.05F
HOT SPRINGS VA SUNNY     68  28  22 W6G20     30.18S
LYNCHBURG      CLOUDY    76  59  55 SW6       30.06F
DANVILLE       CLOUDY    78  62  57 CALM      30.06F
SOUTH BOSTON*  FAIR      78  61  55 NW3       30.05R
MARTINSVILLE   CLOUDY    75  61  62 CALM      30.10S
ROANOKE        PTSUNNY   78  48  34 W14       30.10S
BLACKSBURG     MOSUNNY   73  49  41 NW7       30.16F
DUBLIN*        MOSUNNY   76  40  27 NW12      30.15F
MARION*        MOSUNNY   73  46  38 W12G23    30.19F
HILLSVILLE*    CLOUDY    69  44  40 W12       30.15F
RICHLANDS*     FAIR      72  49  44 NW10G17   30.20R
WISE*          SUNNY     72  43  35 NW10G16   30.22S
ABINGDON*      MOSUNNY   75  50  40 NW7G16    30.17F
$$

MDZ021>025-VAZ099-100-252200-
SOUTHERN MARYLAND AND THE DELMARVA PENINSULA

CITY           SKY/WX    TMP DP  RH WIND       PRES   REMARKS
PATUXENT RIVER PTSUNNY   85  60  42 W8        29.97F
BAY BRIDGE APT MOSUNNY   86  59  39 SW8       29.96S
LEONARDTOWN    SUNNY     82  59  44 SW6       29.99S
DOVER          SUNNY     85  61  44 W13G18    29.94S
GEORGETOWN     SUNNY     86  54  33 W6        29.97S
EASTON         MOSUNNY   84  57  39 CALM      30.00F
CAMBRIDGE      SUNNY     84  59  42 NW6       29.97S
SALISBURY      SUNNY     84  56  38 NW9       29.97S
OCEAN CITY     MOSUNNY   75  65  70 S7        29.98S
WALLOPS ISLAND SUNNY     82  68  62 S10       29.98F
ACCOMACK*      MOSUNNY   85  59  40 NW6       29.99S
$$

NCZ012>017-030>032-252200-
NORTH CENTRAL AND EASTERN NORTH CAROLINA

CITY           SKY/WX    TMP DP  RH WIND       PRES   REMARKS
ROANOKE RAPIDS FAIR      82  63  51 CALM      30.01F
RALEIGH        PTSUNNY   83  63  50 NW8       30.05F
ELIZABETH CITY CLOUDY    86  75  69 NE7       29.99S HX  95
AHOSKIE*         N/A     82  66  57 NW5       30.01F
EDENTON*       MOSUNNY   87  69  54 CALM      30.01S
CURRITUCK*     MOSUNNY   83  71  68 E6        30.00S
KILL DEVIL HLS SUNNY     86  68  55 SW5       29.98S
MANTEO         NOT AVBL
CAPE HATTERAS  CLOUDY    82  75  79 SW7       30.01S
TARBORO*       NOT AVBL
GOLDSBORO      NOT AVBL
WASHINGTON     MOSUNNY  N/A N/A N/A W6        30.01S
GREENVILLE     MOSUNNY   86  66  51 N5        30.03F
NEW BERN       MOSUNNY   87  74  64 NW8       30.01F HX  95
WILMINGTON     CLOUDY    87  72  60 W8        30.01S
$$

VAZ048-252200-
ELSEWHERE

CITY           SKY/WX    TMP DP  RH WIND       PRES   REMARKS
HARRISBURG PA  PTSUNNY   81  53  37 W12       29.94F
BALTIMORE      MOSUNNY   85  52  32 W13       29.96F
ANNAPOLIS      SUNNY     83  57  41 VRB7      29.95F
ANDREWS AFB    MOSUNNY   84  50  30 NW8       29.97S
PHILADELPHIA   PTSUNNY   85  55  35 W12G21    29.94S
HENDERSON NC   SUNNY     80  60  51 W6        30.05S
GREENSBORO     CLOUDY    76  62  62 NW9       30.08S
ROCKY MOUNT    SUNNY     85  62  46 N8        30.03S
$$

VAZ100-252200-
MARINE

STATION/POSITION TIME  TEMP    WIND        PRES    WAVE   SWELL
                       AIR SEA DIR/SP/G            HT/PER HT/PER
                 (UTC) (F)     (DEG/KT/KT) (MB)    (FT/S) (FT/S)
BRANDYWINE LGT   2048          160/ 11/ 12   N/A
CAPE MAY NJ      2048   77 73  140/  7/  9 1014.4F
LEWES DE         2048   79 73  150/  6/ 11 1014.5F
15NM E FENWICK I 2050   72 70  120/  8/  8 1015.4F   2/ 7   2/ 7
OCEAN-CITY-INLET 2048   73 74  190/  4/  6 1015.5S
WACHAPREAGUE VA  2048   81 86  120/  7/  8 1015.0F
THOMAS POINT MD  2100   80 78  160/  8/  9   N/A
GOOSES REEF MD   2100   82 80  180/  6/  8 1015.6    0
COVE POINT MD    2048   80     160/  5/  9 1015.5F
SOLOMONS ISLAND  2048   84 79  250/  3/  6   N/A
BISHOPS HEAD MD  2048   81 84  240/  5/  6 1015.3F
PINEY POINT MD   2048          350/  3/  4   N/A
POTOMAC MD       2100   81 78  350/  4/  4 1014.2    0
CAMBRIDGE MD     2048   85 84              1015.6F
LEWISETTA VA     2048   81 80   50/  4/  5 1015.0F
RAPPAHANNOCK LGT 2048           10/  7/  8 1016.0F
STINGRAY PT      2050   81      90/  6/  8 1016.1F
YORK RVR RNG VA  2048   80     100/  9/ 10 1015.6F
YORKTOWN VA      2048   83 80  340/  5/  6 1015.0F
JAMESTOWN VA     2100   84 85  290/  4/  6   N/A     0
DOMINION TERM VA 2048   81     110/  4/  9 1015.7F
KIPTOPEKE VA     2048      75  320/  5/  6   N/A
CHES BAY BRIDGE  2048   78 77   50/  6/  7 1015.3F
CAPE HENRY VA    2048   79     350/  7/  8   N/A
WILLOUBY STN VA  2048   79      90/  7/  7 1015.5F
S CRANEY ISL VA  2048   83      10/  4/  6 1015.3F
CAPE HENRY BUOY  2100      74                N/A     2/ 7
1ST LANDING BUOY 2100   80 77              1015.5    1/ 3
CAPE CHARLES BUO 2051      72                N/A     2/ 7
64NM E OF VA BCH 2050   75 75  230/  6/  6 1016.2F   4/ 7   3/ 7
DUCK PIER NC     2048   77 65   70/  9/ 15 1015.1R
44100 DUCK FRF   2005      75                N/A     2/ 8
OREGON INLET NC  2048          100/  8/ 10   N/A
HATTERAS NC      2048   81 78  220/  7/  9 1016.0F
DIAMOND SHLS NC  2050   79 81  240/  8/ 10 1016.2F   4/ 5   3/ 5
CAPE LOOKOUT NC  2100   80     220/  8/ 11 1015.9F
$$



USA.gov is the U.S. government's official web portal to all federal, state and local government web resources and services.